Orbital Elements at Epoch 2459000.5 (2020-May-31.0) TDB
Reference: JPL 25 (heliocentric ecliptic J2000)
Element | Value | Uncertainty (1-sigma) | Units |
e | .2418699239787705 | 6.4186e-08 | |
a | 2.665286345466498 | 1.9235e-08 | au |
q | 2.020633739706861 | 1.7346e-07 | au |
i | 13.40260895789398 | 7.4413e-06 | deg |
node | 310.733827599811 | 2.2388e-05 | deg |
peri | 349.0180321969998 | 2.5379e-05 | deg |
M | 61.45029341257295 | 1.2812e-05 | deg |
tp | 2458729.208805015472 (2019-Sep-02.70880502) | 5.5779e-05 | TDB |
period | 1589.330575506213 4.35 | 1.7205e-05 4.71e-08 | d yr |
n | .2265104601573134 | 2.452e-09 | deg/d |
Q | 3.309938951226135 | 2.3887e-08 | au |
|
| | Orbit Determination Parameters
Additional Information
|